Theta_e
321 321 321 321 321 321 320 319 324 326 326 326 323 326 323 324 328 326 327 326 326 324 322 324 324 324 325 326 327 331 333 334 335 335 340 337 332 334 332 330 329 323 323 323 322 321 319 317 313 312 310 317 327 329 331 331 332 331 328 325 321 319 316 314 313 316 319 317 314 313 311 310 311 310 311 314 315 314 312 313 314 313 311 311 314 319 321 318 316 314 313 314 315 317 318 321 323
321 321 321 321 322 320 320 321 330 334 332 327 323 326 321 321 325 327 330 328 326 324 324 325 324 325 325 325 325 328 330 330 329 333 336 334 335 335 332 331 328 323 323 323 322 321 319 317 314 312 310 314 323 327 329 330 331 330 327 323 321 318 316 313 311 316 321 320 319 317 315 312 311 311 312 316 318 317 316 318 320 318 313 312 312 318 322 320 315 313 313 315 318 319 319 321 323
319 320 320 321 322 320 321 322 330 331 326 325 328 328 320 321 329 329 327 324 324 325 326 325 326 327 326 328 329 328 331 332 331 334 335 335 335 334 333 331 328 324 322 323 322 321 319 318 314 312 310 312 321 327 328 329 329 328 326 324 321 318 316 313 311 316 320 322 321 319 320 318 314 312 312 316 318 317 317 319 322 322 317 312 312 315 318 317 315 316 318 319 319 320 320 320 321
318 319 319 321 321 321 325 325 333 331 323 325 327 326 324 326 331 326 321 323 325 324 324 325 329 328 327 334 332 329 333 334 334 334 335 336 335 334 333 331 329 325 323 323 322 321 319 318 315 312 311 311 319 325 327 328 329 327 327 325 322 319 316 314 311 310 314 320 321 319 320 321 320 316 312 316 317 314 315 317 319 322 318 313 313 314 314 315 317 319 320 321 320 320 321 320 321
316 317 318 320 322 323 325 324 329 328 325 330 324 325 331 329 326 321 321 325 324 323 325 328 333 329 327 332 330 329 334 335 334 334 335 334 334 334 333 332 329 325 323 323 322 321 319 318 315 312 310 313 318 323 327 327 328 329 328 326 323 320 317 315 311 309 312 318 322 319 315 319 324 320 314 315 316 314 314 315 316 317 315 314 314 315 316 319 320 320 320 321 322 322 321 321 320
314 316 316 319 321 321 325 322 324 328 330 331 325 330 331 323 322 320 321 323 322 323 325 327 331 330 330 330 330 330 332 335 335 334 333 333 334 333 334 332 330 326 324 322 322 320 319 318 315 312 310 312 315 318 325 327 328 329 329 328 324 322 320 315 312 310 310 313 318 316 312 315 321 322 317 314 314 314 314 315 315 315 315 314 315 318 319 321 321 320 320 319 321 321 321 321 321
314 316 316 320 321 320 329 327 329 335 328 323 325 332 324 318 321 321 322 322 323 323 324 326 326 330 333 331 331 331 332 334 333 333 333 332 333 333 334 333 330 327 324 322 322 320 320 318 315 313 310 311 311 313 321 328 328 328 330 329 325 325 321 315 312 310 309 310 311 311 311 312 318 322 318 314 315 315 315 314 314 315 315 315 316 319 319 319 320 319 318 318 319 320 321 322 323
314 317 318 323 324 322 329 327 330 335 323 314 321 325 319 319 321 321 323 323 324 324 325 327 325 330 334 330 330 331 331 331 332 332 333 332 332 332 334 334 331 327 324 322 322 321 320 319 316 314 311 310 311 312 317 324 327 327 329 328 326 327 321 314 312 311 310 309 309 309 310 311 316 319 315 315 316 315 315 315 315 315 315 315 315 317 318 318 318 318 318 318 319 319 321 323 323
315 319 319 322 325 324 328 326 325 326 322 317 319 320 319 321 322 321 322 322 323 324 327 327 323 328 331 330 330 330 328 330 331 332 332 332 332 332 333 334 332 326 323 322 322 321 320 319 316 314 313 310 311 312 313 319 323 324 326 327 328 326 319 314 311 311 310 309 309 309 311 311 314 315 315 316 316 316 316 316 315 315 315 315 315 315 316 317 317 318 318 319 319 320 322 322 323
317 320 318 322 325 322 324 326 327 324 320 319 319 320 320 321 322 321 321 322 323 324 326 324 323 327 331 332 331 330 328 329 332 332 332 331 330 331 333 333 331 326 322 322 322 321 320 319 316 315 313 310 310 311 311 314 318 320 323 328 330 324 317 313 311 311 310 309 309 308 310 310 312 315 316 316 317 318 317 316 316 315 315 315 315 315 315 316 317 318 318 318 319 320 320 322 323
319 320 318 323 325 321 323 328 334 331 320 317 319 320 321 321 321 320 320 322 322 322 322 323 328 329 330 331 331 330 326 328 331 332 332 330 329 331 332 333 330 326 323 322 322 321 320 319 316 316 314 311 311 311 311 312 313 316 321 328 328 321 316 312 311 311 310 310 309 308 309 309 312 315 316 317 318 318 318 318 316 315 315 314 315 315 315 316 317 317 318 318 319 319 319 321 323
318 323 327 329 327 324 325 328 335 332 321 321 322 320 321 321 320 319 320 321 321 321 321 324 327 328 332 333 332 330 326 328 331 331 331 328 329 332 333 333 330 327 324 322 322 321 320 319 316 316 315 312 311 311 311 311 312 313 319 324 323 318 314 312 310 311 310 310 309 309 308 308 312 315 315 317 318 318 319 318 317 316 315 314 314 314 315 315 317 317 318 318 318 318 319 320 321
318 324 330 326 325 325 324 326 329 326 321 323 322 320 322 320 319 319 320 320 320 321 321 323 323 326 334 333 331 331 329 328 330 330 329 327 329 333 334 333 332 329 325 323 322 322 321 319 317 316 316 313 312 312 311 312 312 313 316 318 317 315 313 311 311 311 310 310 309 309 308 309 312 315 315 316 318 319 319 319 319 318 316 315 314 314 314 315 316 317 317 318 318 317 318 318 319
319 322 326 324 323 327 326 325 322 321 322 323 319 320 322 319 319 319 321 321 319 321 320 323 322 325 333 332 333 333 331 331 330 330 328 327 330 333 335 334 333 332 328 325 323 322 321 319 317 316 316 314 312 312 312 312 312 312 313 314 313 313 312 312 311 311 311 310 309 309 308 309 313 314 315 316 317 318 319 319 319 319 319 317 315 314 314 314 315 316 316 317 317 317 316 316 317
319 320 327 328 325 324 325 323 320 321 324 321 317 319 321 319 319 318 321 322 319 320 321 324 324 324 329 333 334 330 330 332 331 331 327 327 330 333 335 334 334 333 330 326 323 322 322 319 317 316 316 315 313 312 313 313 313 313 312 312 312 312 312 312 312 311 311 310 309 309 308 309 312 314 315 316 317 318 319 318 319 319 320 319 318 317 315 315 315 315 316 316 316 316 316 315 315
319 318 326 329 325 323 322 320 318 321 321 317 316 319 320 318 318 318 319 320 319 321 323 326 326 324 322 326 324 322 329 332 332 332 328 328 331 332 334 334 334 334 331 328 324 323 322 319 317 316 315 316 315 313 313 314 314 314 314 314 313 313 312 312 312 311 312 311 310 309 308 309 312 314 314 315 316 317 318 318 318 318 319 319 319 319 318 317 316 316 316 316 317 316 316 315 315
317 318 326 327 326 325 323 320 318 321 322 316 315 317 318 317 317 318 318 318 320 322 323 325 326 324 322 323 321 320 327 332 333 333 331 331 332 332 333 333 334 334 333 329 326 324 323 320 317 316 315 316 316 315 314 313 313 313 314 314 313 313 312 312 312 311 311 311 311 310 309 308 310 313 314 315 316 316 317 318 318 318 318 318 318 318 319 319 318 318 318 318 318 318 317 317 317
317 323 326 325 328 328 325 323 316 318 321 315 315 317 318 317 317 317 318 319 320 321 320 322 325 323 323 324 322 321 325 331 334 333 333 333 333 332 332 333 333 334 334 331 328 325 323 320 317 316 315 316 317 317 316 315 314 313 313 313 313 312 312 311 312 312 311 311 312 311 310 309 309 311 313 315 316 317 317 318 318 319 319 319 319 318 318 319 318 318 318 318 318 318 318 318 318
319 324 323 326 332 325 320 319 314 315 318 315 315 317 317 318 317 317 320 322 322 323 324 324 324 322 323 325 324 322 324 330 333 332 333 333 334 332 330 332 332 332 333 332 330 326 324 321 318 316 315 316 317 318 318 317 317 315 314 314 314 313 313 313 312 312 311 311 311 311 311 310 309 310 312 314 316 317 317 318 318 319 319 319 319 319 319 319 319 319 318 318 318 318 318 318 318
317 318 321 329 327 319 316 315 314 315 315 314 315 316 316 317 318 317 319 321 320 323 326 325 325 322 322 325 325 322 324 329 332 332 332 332 332 331 329 329 329 330 331 331 330 328 326 322 319 317 316 317 318 318 319 320 319 319 318 318 317 317 316 316 316 315 313 312 311 311 312 311 310 310 311 313 314 316 317 317 318 318 318 318 318 319 319 319 320 320 319 319 319 319 319 319 319
316 315 321 325 317 316 317 314 314 314 314 314 315 316 316 316 317 317 318 320 320 319 321 323 323 320 320 324 325 322 323 328 331 332 332 332 331 331 330 327 326 327 328 330 329 327 326 323 319 317 318 318 318 319 320 321 321 321 321 321 321 320 320 320 320 320 318 315 312 311 311 312 311 310 310 311 313 315 316 316 317 317 317 317 317 318 318 319 319 319 320 320 320 320 320 320 320
317 317 317 317 314 315 317 314 314 314 314 315 314 316 317 316 316 316 318 320 320 318 319 318 318 318 318 321 323 322 322 326 329 331 331 331 330 330 330 329 328 328 328 329 328 326 326 324 320 317 319 319 319 321 321 321 322 322 322 322 322 322 322 322 321 322 322 320 318 314 312 311 312 311 311 311 312 313 314 315 316 317 317 317 318 318 318 319 319 319 319 319 319 319 320 320 320
320 321 315 315 315 315 316 315 315 314 315 315 314 316 316 316 316 315 317 319 319 318 319 318 318 318 317 318 321 321 321 323 325 326 327 328 327 328 328 328 327 327 327 326 325 324 324 324 321 317 319 320 320 321 321 322 322 322 322 322 323 322 322 322 323 322 322 323 322 320 316 313 312 312 312 312 312 313 313 314 315 316 316 317 317 318 318 318 318 318 318 319 319 319 319 319 319
319 320 315 316 315 314 316 315 315 314 315 315 314 316 315 316 316 315 315 318 318 318 318 318 319 318 318 319 319 320 319 320 320 320 321 321 322 323 324 325 324 326 326 325 324 323 322 322 321 317 318 320 321 321 322 323 323 323 323 323 322 322 323 323 323 323 323 323 323 323 321 317 315 313 313 313 313 313 313 314 314 315 315 316 316 316 317 317 317 317 317 317 317 318 318 318 318
316 318 316 315 315 315 316 315 314 314 315 315 314 315 315 315 315 313 315 317 317 317 317 318 318 318 319 319 319 320 319 319 318 319 321 321 321 323 324 325 325 326 325 324 323 321 319 320 320 317 316 319 321 321 322 324 326 327 326 325 324 323 323 323 323 323 323 323 323 323 323 322 321 318 317 316 315 313 313 313 314 315 315 315 315 315 316 316 316 316 316 316 316 317 317 317 317
313 315 314 313 315 315 315 314 314 314 315 315 315 314 314 314 314 314 316 317 317 316 316 316 317 318 319 319 319 319 319 319 319 320 321 321 322 323 323 324 325 325 323 323 323 320 318 318 319 317 316 317 319 321 321 323 326 328 328 327 326 325 324 324 323 323 322 322 323 323 323 323 323 323 322 321 319 317 316 315 314 314 314 315 315 315 315 316 316 316 316 316 317 317 317 317 318
311 312 313 312 313 314 314 314 313 314 314 314 315 315 313 313 313 315 316 316 316 315 315 316 316 317 318 318 318 319 319 318 318 319 321 322 322 322 322 323 323 323 323 323 322 320 318 317 317 317 316 317 319 321 323 323 324 325 326 327 326 324 324 324 323 323 322 322 322 322 323 323 323 324 323 323 322 321 321 320 319 317 317 317 316 316 316 317 318 318 318 318 318 319 318 318 319
311 312 312 312 312 313 313 313 313 314 314 313 314 314 313 313 313 315 315 315 316 315 315 316 315 317 317 317 318 319 319 318 319 320 320 320 320 319 319 320 321 321 322 321 321 320 319 317 317 317 317 318 319 322 324 325 323 323 323 324 324 324 323 324 324 323 322 322 322 322 322 323 323 323 323 323 323 323 323 323 323 322 321 320 320 319 320 320 321 322 321 322 322 322 321 321 321
312 312 313 314 313 313 314 312 313 314 314 313 313 314 315 315 315 315 315 315 315 314 316 316 315 317 317 318 319 319 318 319 321 320 318 317 316 316 317 318 319 319 320 320 320 320 319 318 317 317 317 318 319 320 322 324 323 323 322 322 323 323 323 323 323 323 323 323 322 322 322 323 323 323 323 323 323 323 323 323 323 323 323 323 323 322 323 323 323 323 323 323 323 323 323 322 322
314 313 312 315 314 315 314 311 313 314 313 313 313 316 319 317 314 315 315 314 314 315 316 316 316 317 317 319 319 318 318 319 320 318 316 316 316 316 315 316 317 317 318 319 320 319 318 318 318 318 318 318 318 319 320 321 322 322 322 322 322 322 322 322 322 322 323 323 323 322 322 323 323 323 323 324 324 323 323 323 323 324 324 323 323 323 323 324 323 323 323 323 323 323 323 323 322
318 314 312 315 316 319 316 310 312 314 313 313 313 315 319 318 314 314 314 314 314 315 316 315 316 316 317 318 318 318 318 318 318 316 315 315 315 316 315 315 316 316 317 317 318 318 318 318 318 318 318 318 319 319 319 319 320 321 321 321 321 322 322 321 321 321 322 322 323 323 323 323 323 323 323 324 324 324 323 323 323 323 323 324 324 324 323 323 323 323 323 323 323 323 323 323 322
316 314 314 315 314 321 320 310 311 315 313 312 313 315 317 316 314 313 313 313 314 315 315 316 316 316 316 317 318 318 317 317 317 317 316 315 316 315 314 315 315 315 316 316 316 318 318 319 318 318 317 318 318 318 319 319 320 321 321 321 321 321 321 321 321 321 321 321 322 322 322 322 322 323 324 324 324 324 324 323 324 324 324 324 324 324 324 324 323 323 323 323 324 323 324 324 324
314 313 318 319 314 318 319 311 310 312 313 312 312 316 318 315 312 312 313 312 314 315 316 315 315 316 316 316 317 316 317 317 317 317 316 315 315 315 314 314 314 314 314 314 315 316 318 319 319 318 318 318 318 318 319 319 320 320 320 321 321 321 321 321 320 321 321 321 320 320 320 320 321 322 323 324 324 324 324 324 324 324 324 324 325 325 325 325 325 324 323 324 324 325 325 325 324
314 312 315 319 316 315 316 314 312 310 312 314 313 314 317 316 312 311 313 312 313 314 315 316 316 316 316 316 316 316 317 316 316 316 315 315 315 314 314 313 314 314 314 314 314 315 316 318 318 318 318 318 319 319 319 319 320 320 321 321 321 322 321 321 320 321 320 320 319 319 319 319 319 320 320 322 322 323 324 324 324 324 324 324 325 325 326 326 326 325 324 324 324 325 325 325 324
314 313 313 315 314 313 315 316 313 311 313 314 314 314 315 315 312 311 312 311 312 313 313 314 315 316 316 316 316 316 316 316 315 315 314 315 314 314 314 313 313 313 314 314 314 314 315 317 318 318 318 318 319 320 321 321 322 322 322 322 322 321 320 320 320 320 320 319 319 319 319 319 318 317 317 318 319 321 323 324 324 324 324 325 325 325 326 325 325 325 325 324 324 324 325 325 325
315 315 314 316 315 313 316 317 313 311 314 314 314 314 314 314 314 312 311 311 311 312 312 312 313 314 316 317 317 316 316 315 314 314 314 314 314 314 313 313 313 313 313 313 314 314 315 316 317 318 318 317 319 322 323 323 323 322 322 321 320 319 318 318 318 318 318 318 317 317 318 317 317 317 317 318 318 318 320 322 324 324 325 325 325 325 325 324 324 324 323 323 323 323 324 324 323
314 314 313 315 316 314 315 317 313 310 313 315 313 314 314 314 314 312 310 310 310 310 311 311 312 312 314 316 316 316 316 315 315 314 314 314 314 314 314 313 313 313 313 313 314 314 315 315 316 316 317 318 320 322 322 321 320 320 320 319 317 316 316 316 316 316 316 315 315 316 315 316 316 317 318 319 320 319 319 320 322 324 324 324 324 324 323 323 322 322 323 322 322 322 322 321 321
311 313 314 313 314 314 314 315 313 311 312 316 314 313 313 313 313 311 309 309 310 310 311 311 312 312 313 314 315 315 315 315 315 315 314 314 314 314 314 314 313 313 313 313 313 313 314 315 315 315 316 318 319 319 320 319 317 316 316 316 315 316 316 316 315 315 315 315 315 315 315 316 316 317 318 320 322 322 321 320 321 323 323 323 323 323 322 322 322 322 323 323 321 320 321 321 321
311 312 314 314 314 313 313 314 314 311 312 317 316 313 314 313 312 311 308 309 311 312 312 312 313 313 313 314 314 315 315 315 315 314 314 314 314 314 314 314 313 313 313 313 313 313 313 314 314 315 316 317 316 316 318 318 316 315 315 316 317 318 317 317 317 316 317 316 316 317 317 317 317 317 319 320 321 322 322 322 321 322 322 323 323 323 323 322 321 321 322 322 320 320 323 323 321
311 312 313 315 314 313 314 313 313 312 313 315 315 314 315 313 312 311 309 309 311 313 313 312 312 313 314 315 315 315 315 315 315 314 315 314 314 315 314 314 314 314 313 313 313 313 313 313 314 314 315 315 315 315 316 316 317 318 319 319 319 320 320 320 320 319 318 317 316 317 316 317 318 318 319 319 319 321 322 323 323 323 322 322 322 322 323 323 322 323 323 321 320 320 321 323 322
311 312 313 316 317 315 313 313 313 312 312 313 314 315 317 316 314 314 311 309 309 310 311 311 312 313 314 314 314 315 315 314 315 314 314 314 314 314 314 314 314 314 314 314 313 313 313 313 313 313 313 313 314 314 315 316 319 321 322 323 323 323 321 320 320 318 316 315 315 316 316 317 317 318 318 319 319 320 321 323 323 323 322 323 323 322 322 322 323 325 323 320 320 320 319 322 323
312 313 313 314 317 316 314 315 314 313 315 315 313 315 323 325 320 316 315 313 311 309 308 309 312 313 313 314 314 315 315 314 315 314 314 314 314 314 314 314 314 314 314 314 314 313 313 313 312 313 313 313 313 314 314 316 318 320 322 322 322 321 318 317 316 314 314 315 315 315 316 317 318 318 319 319 320 321 322 322 323 323 323 323 323 322 321 321 322 322 320 319 322 322 319 321 324
311 314 314 314 315 316 317 316 315 316 317 314 312 315 323 323 319 318 318 317 317 312 308 307 310 312 312 313 314 314 315 314 314 315 315 315 314 314 314 314 314 314 314 313 313 313 313 313 313 313 313 313 313 313 314 315 317 318 319 319 318 317 316 314 312 313 314 315 315 316 316 317 318 318 319 320 321 323 323 323 323 323 323 322 323 322 323 324 323 320 319 320 322 322 321 323 325
314 318 317 316 315 317 320 317 316 319 316 314 314 316 317 315 316 318 316 317 320 317 314 311 308 310 312 312 314 314 314 315 314 314 315 315 315 315 314 314 314 314 314 313 313 313 313 313 313 313 314 314 314 314 314 315 316 316 317 317 317 316 315 314 314 315 315 315 316 316 316 317 317 318 320 320 322 323 324 324 325 324 323 323 322 322 323 324 322 320 320 322 321 320 322 324 324
317 320 318 317 317 319 320 316 317 317 315 317 318 314 314 318 321 320 315 314 317 318 318 315 310 311 313 313 314 314 314 314 314 314 314 314 315 315 315 315 314 314 314 314 314 313 313 313 313 314 314 314 314 315 315 315 316 316 317 318 318 317 316 316 317 318 317 317 317 317 317 317 318 319 319 321 322 323 324 324 325 324 323 323 322 322 324 324 322 321 322 322 321 322 323 322 321
314 317 319 319 320 320 317 316 318 315 313 318 319 314 313 321 327 322 314 313 316 318 318 314 309 311 313 313 314 314 315 314 314 314 314 314 314 314 315 315 315 315 314 314 314 314 314 314 313 314 314 314 314 315 316 316 316 317 318 319 319 318 319 320 321 320 320 320 319 319 318 318 319 319 320 321 322 323 324 323 323 324 323 321 322 325 327 326 324 322 320 321 323 323 322 320 321
311 315 319 318 321 322 320 323 322 314 314 318 320 317 312 317 325 320 314 316 318 316 314 313 310 310 312 313 314 314 315 315 314 314 314 314 315 314 315 315 315 315 314 314 314 314 314 314 314 314 314 314 315 315 316 316 317 318 318 318 319 319 320 321 322 322 322 321 321 320 319 320 320 320 321 321 322 323 324 322 322 325 325 321 321 324 325 325 325 321 319 321 322 321 320 322 324
312 321 321 316 322 323 321 325 321 314 316 316 316 315 312 314 321 319 316 318 318 313 313 315 312 311 313 313 314 314 314 315 315 315 314 314 315 314 315 315 315 315 314 315 314 314 315 314 315 315 314 314 315 315 317 317 318 319 319 319 319 320 320 321 322 322 322 322 322 322 322 322 321 321 321 322 323 323 322 323 323 322 324 324 325 325 323 322 323 321 321 321 322 322 323 323 323
315 321 318 315 319 317 317 321 318 316 316 312 312 314 312 313 316 317 316 313 313 310 308 312 311 311 313 313 315 315 315 315 315 315 315 314 314 314 314 314 315 315 315 315 315 314 315 315 315 315 315 315 315 316 317 317 319 319 320 321 321 321 321 322 323 323 324 324 324 324 324 324 323 323 323 323 324 323 322 323 322 321 323 326 328 325 322 322 323 324 323 324 324 324 324 322 321
314 316 315 317 319 314 315 317 314 316 317 312 310 313 315 315 315 317 316 311 312 310 307 309 310 311 313 313 315 315 315 315 315 315 315 315 315 315 315 315 315 315 315 315 315 315 315 315 315 315 315 315 315 316 317 317 319 319 320 321 322 323 324 324 325 325 326 326 326 326 325 325 325 324 324 324 324 325 323 321 322 325 325 323 324 324 323 324 325 325 324 324 324 323 322 321 319
314 316 316 320 322 318 317 317 318 321 319 313 310 313 319 319 317 318 313 309 310 310 310 310 310 311 313 312 314 314 315 315 314 315 314 315 315 315 315 315 315 315 316 316 316 316 317 316 316 316 315 316 316 316 317 317 318 319 321 321 322 324 325 326 327 327 328 328 327 327 326 326 326 325 325 326 325 324 323 321 323 327 324 321 323 325 324 325 325 325 325 323 322 320 318 317 316
315 318 317 317 320 323 320 317 322 324 320 316 312 315 322 319 315 314 309 308 310 308 309 310 310 312 312 312 314 313 314 315 314 314 314 314 314 314 314 314 314 314 314 315 315 315 316 317 317 317 316 316 316 316 317 317 318 319 320 321 322 323 325 326 327 327 327 327 327 327 327 326 326 326 326 326 325 323 323 324 324 323 323 324 325 325 324 324 324 324 322 320 318 316 314 314 314
314 314 317 316 315 322 321 313 314 317 315 317 314 315 321 317 314 316 313 313 314 310 309 308 309 312 311 311 314 313 314 314 314 314 313 313 314 314 314 313 313 313 313 313 313 313 314 315 316 317 317 317 316 316 317 316 317 317 317 319 320 322 324 324 324 325 325 325 325 325 326 326 326 327 327 326 325 323 323 325 325 324 325 326 325 325 324 324 322 320 318 316 315 314 313 313 313
315 314 316 316 313 319 321 314 315 315 314 320 318 314 319 317 317 324 320 314 316 316 313 309 308 310 310 311 313 313 314 314 314 314 312 312 314 314 315 314 313 314 313 313 312 312 312 312 313 314 315 315 316 316 316 315 315 315 315 316 318 320 321 321 322 323 324 325 325 324 325 326 327 327 327 325 324 322 322 325 327 325 324 324 324 323 322 320 318 316 315 315 314 313 312 311 310
313 314 313 314 315 316 316 314 316 314 313 322 321 314 316 317 318 325 318 313 317 316 314 313 311 309 310 312 313 313 314 314 314 313 311 312 314 315 315 314 314 315 314 314 312 312 311 311 311 311 312 313 314 314 314 314 314 313 313 313 315 317 318 319 321 323 323 324 324 325 325 326 327 326 325 324 322 321 321 323 324 322 320 321 321 320 317 315 314 313 313 312 312 311 310 309 309
310 311 310 313 318 318 317 315 316 315 314 320 320 314 317 317 316 320 317 315 318 315 315 318 312 309 311 313 313 313 314 314 314 312 311 312 314 315 315 315 315 315 315 315 314 313 312 311 310 310 310 311 312 312 312 312 312 311 311 311 313 315 318 320 322 322 323 323 324 324 325 325 326 324 323 322 322 322 322 322 321 320 319 319 318 315 313 312 311 311 311 311 310 310 309 308 307
312 313 312 312 313 316 318 315 316 320 319 319 318 314 319 321 315 315 315 314 315 315 318 318 310 309 313 313 313 314 313 313 313 313 312 312 314 315 315 315 315 315 315 315 314 314 313 312 312 311 311 310 310 311 311 310 310 310 310 311 313 316 318 321 322 322 323 323 323 324 324 325 325 324 323 322 322 322 322 322 321 320 320 318 315 312 311 311 311 311 310 310 309 308 307 305 303
314 314 313 313 315 316 316 313 315 318 317 319 318 312 318 322 314 312 314 314 313 312 313 314 310 310 313 313 313 314 313 312 312 312 312 312 314 315 315 315 315 315 315 315 315 314 314 313 313 312 312 311 311 311 310 310 310 309 310 311 313 315 318 320 321 321 323 323 323 323 323 324 323 323 323 322 321 321 321 321 320 319 317 314 312 311 311 311 310 310 309 308 307 305 303 301 299
Wind_Speed
7 7 6 5 7 6 6 7 2 2 3 2 2 1 2 3 2 2 3 1 1 2 2 8 12 13 8 7 8 8 7 6 5 3 3 8 19 20 18 18 15 14 13 12 11 9 7 6 6 7 10 14 15 14 12 10 8 7 7 7 8 10 11 12 12 11 11 11 11 12 13 14 13 13 13 13 13 13 13 13 14 15 15 14 14 14 13 13 12 13 14 15 16 16 17 17 18
6 6 6 5 6 5 4 5 2 3 5 2 3 2 2 1 2 4 6 3 4 8 14 17 16 14 11 12 12 10 5 3 5 5 10 19 23 19 18 17 15 14 13 12 11 8 6 6 5 6 9 13 15 14 11 10 8 6 6 6 8 10 11 11 11 11 11 11 11 12 13 14 14 13 13 13 14 14 15 14 15 15 15 15 14 14 14 13 14 16 16 16 17 17 17 17 17
6 5 4 5 4 4 2 4 2 1 3 1 4 3 1 2 5 6 6 5 13 19 18 15 13 10 7 8 6 4 2 2 7 12 19 24 23 21 19 17 15 13 13 12 10 8 6 5 4 5 8 12 15 14 11 10 7 6 6 7 8 10 11 11 11 11 11 11 11 12 12 13 13 13 13 14 15 15 15 15 15 15 15 15 15 14 14 14 16 17 16 17 17 17 17 17 16
5 5 4 3 2 3 3 3 1 3 1 2 3 4 2 5 8 6 4 12 20 16 8 7 7 6 4 5 5 3 3 4 11 18 23 24 21 22 20 17 16 14 13 12 10 8 6 4 3 5 7 11 15 14 12 10 8 6 7 7 8 10 10 10 11 11 11 11 11 11 12 12 12 13 14 14 15 16 16 15 15 15 16 16 15 14 14 14 15 16 16 16 17 16 16 16 15
5 4 3 3 1 1 3 3 2 3 2 3 2 5 5 6 7 5 9 16 13 4 3 6 5 5 7 7 3 2 4 7 14 20 24 24 20 21 20 18 16 15 14 12 11 8 6 4 3 4 8 11 14 15 13 11 9 8 6 7 8 9 9 10 10 11 11 11 11 11 12 12 12 13 14 15 16 16 16 16 16 16 16 16 15 14 14 14 15 15 15 16 16 16 15 14 13
5 3 1 1 2 1 2 1 1 1 4 5 3 5 5 7 9 11 12 11 6 4 6 7 7 8 8 7 5 5 8 8 14 20 23 24 21 20 20 18 16 15 14 12 11 8 6 4 3 4 7 10 12 14 14 12 11 8 7 7 7 7 8 9 9 10 10 10 10 10 11 12 12 13 14 15 16 16 16 16 16 15 16 15 15 14 13 13 14 14 14 15 15 14 14 14 15
4 2 0 3 3 2 3 2 3 3 4 6 4 5 6 9 14 14 11 8 4 6 6 9 14 11 6 5 5 8 7 7 14 19 22 22 21 20 19 17 16 15 14 13 11 9 6 3 3 4 7 10 10 12 13 13 12 10 8 7 6 6 7 8 9 9 9 9 9 10 11 11 12 13 14 15 15 15 15 15 15 14 15 14 14 13 13 13 13 14 13 13 13 14 14 15 15
3 1 2 3 2 3 3 2 3 3 3 4 4 5 11 15 17 14 9 7 4 5 9 14 14 7 3 3 5 7 5 8 14 18 21 21 21 20 18 17 15 15 15 14 12 10 7 4 3 4 6 9 10 11 12 12 12 11 10 8 6 7 7 7 8 8 8 8 9 10 11 12 12 13 14 13 13 14 14 14 14 14 14 13 13 12 12 12 13 13 12 12 12 13 14 14 14
1 1 2 3 2 2 2 1 3 3 4 4 4 6 14 18 18 13 8 5 5 9 15 16 8 4 5 4 6 8 6 10 14 18 20 20 21 19 18 16 15 15 16 14 12 10 7 5 4 4 5 7 10 11 12 11 11 11 10 8 7 7 7 7 7 7 7 8 8 9 10 12 12 12 13 13 13 13 14 13 13 13 13 13 12 11 12 12 12 11 11 11 11 12 12 13 13
0 0 2 2 2 1 2 2 3 3 5 5 4 9 15 17 15 11 8 5 10 13 14 13 5 8 11 7 7 8 9 12 15 19 20 20 20 19 18 16 14 15 16 15 12 10 8 6 5 5 5 7 10 11 12 11 10 10 10 9 8 7 7 6 7 7 7 7 8 8 9 10 10 11 12 13 13 13 13 13 13 13 12 12 11 11 11 11 10 10 10 10 10 10 10 11 12
1 1 2 3 3 2 3 3 4 4 5 4 2 9 15 17 12 7 6 7 12 12 13 10 5 13 12 7 8 10 12 13 16 19 20 20 19 18 18 17 16 15 15 14 12 11 8 7 6 6 6 6 9 10 12 12 10 10 10 10 9 7 6 6 6 7 7 7 8 8 8 8 9 11 12 13 13 13 13 13 13 12 12 11 11 10 10 10 10 9 8 9 8 8 8 9 10
0 2 3 3 2 3 4 2 4 5 5 3 3 8 14 16 8 6 8 8 11 10 13 10 9 15 8 3 9 12 15 14 15 18 19 20 19 19 18 17 17 15 14 14 13 11 9 7 7 7 7 7 8 10 11 12 10 10 10 10 8 6 6 6 6 7 7 7 8 8 8 8 10 12 13 13 13 13 13 13 12 12 11 11 10 10 10 9 9 8 7 7 7 7 7 7 8
2 2 4 2 3 2 3 2 4 4 5 3 4 8 14 15 9 12 12 10 11 9 9 10 13 15 5 3 10 15 16 15 16 17 19 20 21 20 18 18 17 16 15 14 13 12 10 7 7 8 8 8 8 10 10 11 10 10 10 9 7 6 6 6 6 6 6 7 8 8 8 9 11 12 13 12 12 12 12 12 12 11 11 11 10 10 9 9 9 8 7 6 6 6 6 6 6
2 3 4 2 1 1 4 1 2 1 3 5 5 10 15 13 9 15 14 9 8 8 8 10 15 12 4 4 10 20 19 17 19 17 19 21 22 20 18 17 16 16 15 15 14 12 11 8 8 9 10 9 9 10 11 11 10 10 9 9 8 7 6 6 6 6 6 6 7 8 8 9 11 12 12 12 12 12 12 11 11 11 11 11 10 9 9 8 8 7 6 6 5 6 6 6 6
2 3 4 2 1 1 3 1 1 4 5 4 6 12 16 12 9 14 16 11 6 8 10 12 16 8 5 9 8 21 23 19 22 18 20 22 21 20 18 18 17 17 16 15 15 14 12 9 9 10 11 10 10 11 11 11 10 9 9 9 8 7 7 6 6 6 5 6 7 8 8 9 11 11 12 12 11 11 11 11 10 10 10 10 10 9 9 8 8 7 6 6 5 6 6 6 7
2 2 4 2 1 2 3 2 2 2 5 4 8 12 14 10 10 14 14 11 8 12 13 11 16 6 5 11 3 16 25 22 24 20 22 22 21 20 18 19 18 18 16 16 17 15 14 11 10 10 12 12 11 11 11 11 10 10 9 8 8 7 7 6 6 6 5 6 6 7 8 8 9 10 11 11 11 11 10 10 9 9 9 9 9 9 8 8 7 7 6 6 5 6 6 6 7
2 1 3 1 2 3 3 3 4 3 5 5 9 15 12 5 11 14 9 10 13 16 13 10 17 9 6 9 3 16 26 24 26 24 23 23 23 22 20 20 19 20 18 18 18 17 16 13 11 11 12 13 12 11 11 11 10 10 9 8 8 7 7 6 6 6 5 6 6 7 7 7 8 8 9 10 10 10 9 9 8 8 7 7 7 7 7 7 7 6 6 6 5 6 6 6 7
2 2 2 2 3 4 4 6 6 3 3 7 13 18 14 7 12 14 7 10 15 15 11 12 18 11 7 9 7 19 26 25 28 27 27 26 26 25 24 23 22 23 21 20 19 19 18 15 13 12 13 13 13 12 11 11 10 10 9 8 8 6 6 6 6 6 5 5 5 6 7 7 7 8 8 8 9 8 8 7 7 6 5 5 5 5 5 5 5 5 5 5 5 5 6 6 7
3 2 2 3 4 4 4 5 6 4 4 7 14 18 16 13 18 16 7 8 12 10 8 11 15 13 12 11 12 22 25 27 29 29 30 29 29 29 27 26 25 25 24 23 21 20 20 17 15 14 14 14 14 13 12 11 10 9 9 8 8 7 7 6 6 5 5 5 5 6 6 7 7 7 8 7 8 7 7 6 5 5 4 4 4 4 3 3 3 3 3 3 4 4 5 5 6
3 2 2 5 6 4 4 4 6 7 7 6 13 17 14 15 20 17 9 8 8 9 11 13 15 16 15 14 17 24 26 28 30 30 31 31 30 30 29 28 27 26 25 24 22 21 21 19 17 16 16 15 15 14 14 13 11 10 9 8 8 7 7 6 6 5 5 5 5 6 6 7 7 7 7 7 7 6 6 5 5 4 4 3 3 2 2 2 1 1 2 2 3 3 4 5 6
2 3 3 4 3 3 5 4 7 8 8 9 12 12 10 15 19 16 12 8 5 13 21 21 21 21 18 17 21 25 28 30 32 32 32 31 31 30 29 27 25 25 25 24 23 22 22 21 19 18 18 17 16 15 15 14 13 12 11 10 9 8 8 7 6 5 4 4 4 5 6 6 7 7 7 7 7 6 6 5 5 4 4 4 3 3 2 2 1 1 1 2 2 3 4 5 5
1 4 7 7 3 3 7 5 7 7 7 9 11 10 11 16 15 17 18 11 10 20 26 24 23 21 19 19 22 26 29 31 33 34 34 32 31 31 30 28 26 25 25 24 24 23 22 21 21 20 20 19 18 17 15 15 14 13 11 11 10 9 8 7 7 6 4 4 4 4 5 5 6 7 7 8 8 7 7 6 6 5 5 4 4 3 3 3 2 2 2 3 3 3 4 5 5
3 5 8 11 8 7 10 9 8 7 7 12 13 10 14 16 10 16 22 19 17 20 22 22 20 19 18 19 22 26 28 31 33 33 33 32 31 31 31 30 28 26 25 24 23 23 23 23 22 22 22 20 19 18 17 16 15 13 12 12 11 10 9 8 7 7 6 5 4 4 4 4 5 7 8 8 8 8 7 7 6 6 6 5 5 4 4 4 3 3 3 3 3 4 5 5 6
4 3 5 9 10 10 12 13 11 7 8 14 13 9 13 16 7 9 21 25 19 13 16 20 19 18 19 20 23 25 26 28 29 29 29 29 29 29 29 28 26 25 24 24 23 23 23 24 23 24 24 22 20 20 19 18 17 15 14 13 12 11 11 10 9 8 8 7 6 5 5 5 5 7 7 8 8 8 8 8 7 7 7 6 6 5 5 5 4 4 4 5 5 5 5 6 6
3 3 8 10 10 12 12 11 9 5 7 10 10 6 10 13 5 5 18 24 18 12 13 18 19 20 20 21 23 25 26 27 27 29 30 29 29 29 29 28 27 26 26 24 23 23 23 24 24 25 25 23 22 21 20 19 18 17 17 15 14 13 12 11 11 11 10 9 8 7 7 7 6 7 7 8 8 8 8 8 8 8 8 7 6 6 6 7 6 5 5 6 6 5 5 6 6
2 4 12 13 13 12 10 8 4 2 7 9 9 4 5 9 3 6 18 22 19 15 13 18 22 22 22 22 24 25 27 28 28 30 31 30 30 31 31 30 29 28 26 24 24 22 22 24 25 25 24 23 23 22 21 20 19 19 18 16 15 14 12 12 14 14 13 12 10 9 9 9 9 8 9 9 8 7 8 7 8 8 8 7 7 8 8 8 7 6 6 6 7 6 6 7 6
5 8 14 17 17 13 8 6 3 3 5 9 10 3 2 6 2 6 14 16 20 18 15 20 23 25 25 24 25 25 26 27 27 28 31 33 33 33 31 31 31 29 27 26 25 23 22 25 25 25 24 23 23 23 22 21 20 19 18 17 16 14 13 13 14 15 15 14 13 12 12 12 11 11 11 11 10 9 8 8 8 8 9 8 7 8 9 9 8 7 7 7 7 7 7 8 7
6 10 12 14 13 12 9 5 4 4 2 7 8 2 1 1 2 11 12 11 18 20 18 20 24 26 26 25 25 26 26 25 26 29 31 32 32 32 32 32 31 29 28 27 25 24 24 25 25 25 25 24 24 24 23 22 21 20 19 19 17 16 15 15 15 15 16 15 15 15 14 14 14 13 13 13 12 11 10 10 10 10 9 9 9 10 10 10 10 9 8 8 9 9 9 9 9
5 5 4 8 7 7 10 5 4 5 1 3 6 1 4 2 9 17 13 12 18 19 18 20 23 27 27 27 27 26 26 26 29 31 29 28 27 29 30 30 30 29 28 27 25 25 25 25 25 25 26 26 25 24 24 24 22 21 21 20 19 18 18 18 17 17 17 17 17 17 16 15 15 15 15 15 14 14 13 13 13 12 11 12 11 11 12 12 12 11 11 11 11 10 11 11 12
2 2 1 4 5 5 7 4 3 4 2 5 8 2 6 7 18 21 11 13 19 19 19 20 22 26 28 29 29 28 27 28 30 29 26 25 26 26 27 28 29 28 27 27 27 27 26 25 24 25 26 27 26 25 25 25 24 23 22 22 21 20 20 20 18 18 18 18 19 18 18 17 17 17 17 17 16 16 16 15 15 14 14 14 14 14 14 14 14 14 13 13 13 13 12 13 13
2 2 2 1 2 5 5 3 6 4 3 6 8 3 7 8 17 19 13 14 19 23 23 22 23 25 29 30 31 30 29 29 28 25 25 25 25 25 25 26 28 28 28 28 27 27 26 26 24 25 25 26 26 25 25 25 24 24 23 22 22 21 21 20 19 18 18 18 19 20 19 19 19 18 18 18 19 18 18 18 17 16 16 17 17 16 16 16 15 15 15 15 15 14 14 14 14
2 3 2 1 4 5 6 3 9 6 3 6 7 3 7 9 11 12 15 16 19 25 26 24 25 26 29 31 32 32 31 30 29 28 28 27 27 26 24 25 27 28 28 27 26 27 27 27 26 25 25 25 25 25 24 24 24 23 23 22 21 21 21 21 20 19 19 19 19 20 20 20 20 20 20 20 20 20 20 19 19 18 18 19 18 18 17 17 17 17 17 17 16 16 16 15 15
1 2 3 2 4 3 4 2 8 6 3 4 4 2 4 6 5 4 11 18 20 24 25 26 27 27 29 30 31 32 32 32 32 30 29 28 28 26 25 24 25 27 27 27 26 27 28 28 28 27 26 25 25 24 24 24 23 23 23 22 21 21 21 21 20 20 20 20 20 20 20 20 20 20 21 22 22 22 22 21 20 20 20 20 19 19 18 17 17 18 18 18 17 16 15 15 15
2 0 2 3 3 3 2 2 6 6 3 4 4 4 7 7 5 1 4 12 19 23 26 27 27 28 29 30 31 32 32 33 32 30 28 28 27 26 25 24 25 25 26 27 27 27 28 28 29 28 26 25 24 24 24 23 23 23 23 22 22 22 22 22 21 21 22 21 21 20 20 20 20 21 22 22 23 23 24 24 22 22 22 21 21 20 18 18 18 19 19 19 18 16 15 16 16
5 3 3 3 3 4 4 3 4 8 4 5 6 5 11 12 12 11 5 6 15 24 26 24 25 28 30 30 32 32 33 33 31 28 27 27 27 26 26 25 25 26 26 27 27 27 28 29 30 29 27 25 24 23 23 23 23 24 24 24 24 24 24 23 22 23 23 22 22 21 21 20 20 21 21 22 23 23 24 25 25 24 24 23 23 21 20 18 18 20 21 19 17 16 15 16 16
8 6 5 4 4 4 5 4 4 7 6 5 8 7 12 13 13 15 10 5 11 18 22 23 24 27 28 30 32 32 33 33 30 27 27 28 28 27 26 26 26 27 27 27 27 29 30 30 30 30 29 27 25 25 24 25 25 25 26 26 27 26 25 24 24 23 23 22 22 21 21 21 20 21 21 22 22 23 23 25 26 26 26 26 25 24 21 19 21 22 20 18 16 16 17 18 18
6 4 5 6 6 5 5 3 4 3 5 6 8 8 12 13 10 12 10 7 9 14 18 23 26 26 27 30 33 34 35 33 30 29 30 29 29 29 28 28 28 29 29 29 30 31 30 30 31 31 29 28 28 28 27 27 27 27 27 27 27 26 25 25 24 23 23 22 22 21 21 20 21 21 21 22 23 23 22 23 25 26 26 27 26 25 22 21 23 20 17 17 17 17 17 16 16
2 3 4 6 6 5 5 3 4 1 3 4 3 5 12 13 11 11 9 6 11 17 19 23 27 27 27 29 33 36 35 33 31 31 31 30 30 30 30 30 31 31 31 32 32 31 30 31 32 31 30 30 30 29 29 29 28 28 27 27 26 26 25 24 23 22 22 21 21 21 21 21 21 21 21 22 23 24 23 22 23 24 26 26 25 24 23 23 24 18 16 20 17 15 14 13 13
5 3 3 4 4 3 4 3 3 2 2 3 1 3 10 13 10 10 11 11 16 24 25 25 26 26 28 31 34 36 35 34 33 33 31 30 30 30 31 32 32 32 31 32 33 31 32 32 33 32 31 31 30 29 30 30 28 27 27 27 26 26 25 24 24 23 22 22 22 21 21 21 21 21 21 22 22 24 24 23 22 22 24 25 26 25 25 25 23 18 18 19 14 13 14 13 13
6 4 4 4 3 2 2 3 2 2 1 1 1 2 7 10 7 8 14 19 22 28 28 26 26 25 29 32 34 35 35 35 34 32 31 30 30 30 31 32 31 32 32 33 33 33 34 34 34 33 32 31 30 30 31 30 28 28 28 27 27 27 27 26 26 25 25 24 23 22 22 22 22 22 22 21 21 21 23 24 22 21 22 23 24 26 28 26 21 18 20 18 14 15 14 13 13
7 6 6 4 3 4 4 2 0 1 2 2 2 3 5 7 7 7 10 11 17 24 23 25 28 29 32 32 33 35 35 36 35 34 32 31 31 30 30 30 30 31 33 34 34 34 35 35 34 33 32 32 31 31 31 30 30 31 31 30 31 31 30 30 29 28 27 26 25 24 24 23 22 22 22 22 21 20 21 22 21 21 19 20 22 23 25 25 22 20 21 19 15 16 13 11 13
6 6 7 6 5 5 3 1 2 1 3 1 1 2 5 5 6 8 7 4 9 15 13 21 29 31 34 35 37 39 39 39 37 35 33 32 32 31 30 29 30 31 32 32 33 34 34 34 34 34 34 34 33 32 31 31 33 33 34 34 34 33 32 32 30 27 27 26 25 24 24 24 23 23 23 22 22 21 20 19 19 19 18 20 22 20 17 18 20 20 20 18 16 16 14 15 16
5 6 8 9 7 5 4 4 3 2 4 3 1 4 6 6 5 7 5 5 9 10 8 17 27 30 33 37 40 42 42 42 39 36 33 31 32 32 32 31 30 31 29 28 30 33 35 35 35 34 35 35 33 32 32 33 35 35 35 35 35 34 33 31 27 27 28 27 26 26 24 23 22 22 22 22 22 20 20 19 18 19 19 20 21 21 19 18 18 18 16 15 15 17 18 19 19
4 5 9 10 7 7 7 6 5 4 2 2 2 3 4 5 6 5 3 5 9 10 9 14 23 29 32 35 38 40 41 41 40 38 36 33 32 31 31 30 30 29 27 27 28 30 33 35 35 35 35 35 34 34 34 35 36 36 36 36 36 36 35 31 29 30 30 29 29 28 26 24 22 22 22 21 21 20 19 18 17 18 19 21 21 19 19 19 18 16 15 15 15 16 18 20 18
6 5 8 8 7 7 7 7 5 1 1 4 3 3 3 5 7 4 3 4 8 10 10 11 18 26 28 31 34 35 38 39 39 40 38 36 34 31 30 28 27 28 27 28 28 28 30 32 34 35 36 36 36 35 35 36 36 37 37 37 38 37 36 34 34 34 33 32 31 29 27 25 23 22 22 21 21 20 19 18 17 18 18 20 19 16 15 16 17 18 18 16 15 16 18 17 14
5 6 7 5 4 4 4 6 4 1 2 7 6 5 4 5 6 4 2 3 6 9 9 10 16 21 22 24 27 27 29 31 34 37 38 37 34 31 30 29 28 28 28 28 28 28 29 30 32 34 35 36 36 36 36 36 36 37 38 39 39 38 37 37 37 36 35 34 32 30 27 25 24 23 21 21 21 20 20 20 17 17 19 17 17 20 20 17 19 21 18 16 16 18 15 13 14
6 6 6 6 5 4 3 2 3 2 6 7 6 5 3 4 6 4 4 5 7 8 8 9 13 15 14 16 20 20 20 21 23 28 32 34 34 32 32 31 30 29 28 28 29 29 29 29 31 32 33 33 34 35 35 36 36 37 38 38 38 38 38 38 38 38 36 35 32 29 27 26 25 23 21 20 21 21 22 21 17 17 19 15 11 16 18 18 20 19 14 14 15 14 12 13 17
8 5 4 4 2 2 3 3 2 4 7 5 3 3 3 5 6 4 6 7 7 8 9 9 9 10 9 9 11 14 15 17 17 19 22 26 30 32 32 32 31 30 30 29 28 28 29 29 30 31 31 32 32 33 34 35 35 36 37 37 37 37 37 38 38 37 35 33 31 28 27 26 25 24 22 20 21 22 21 19 18 17 17 16 15 13 12 13 14 10 8 11 12 12 13 16 19
6 4 6 5 0 0 2 2 2 5 5 2 2 2 3 7 6 7 11 10 10 11 12 13 12 11 10 7 7 9 11 14 16 16 17 19 22 25 27 28 29 30 30 29 29 29 29 30 30 31 31 31 32 32 33 34 34 35 35 35 36 36 36 37 36 35 34 31 29 27 26 26 25 24 22 21 21 21 20 19 19 16 14 18 20 15 10 9 9 9 12 14 15 15 14 16 19
7 5 6 6 3 4 6 4 1 4 4 2 2 1 3 5 4 11 15 15 18 18 18 20 20 17 15 10 8 8 8 8 11 14 14 15 16 18 20 23 25 27 27 28 28 29 30 31 32 32 32 31 32 32 33 33 34 33 34 34 34 34 35 35 35 33 31 29 27 26 25 24 23 22 21 19 18 19 19 17 15 17 16 14 14 13 13 15 16 17 18 17 17 17 17 18 20
5 4 5 5 5 6 6 3 3 4 3 2 2 2 4 3 3 9 13 15 19 20 21 24 24 24 23 19 13 11 9 7 7 9 11 12 13 15 18 20 22 24 25 27 28 29 30 32 33 33 33 33 33 33 33 34 33 33 33 33 33 33 34 33 33 31 29 27 26 25 24 23 22 21 19 18 17 17 17 13 13 16 16 13 12 14 16 16 17 19 19 20 20 20 19 19 18
4 3 5 5 5 5 3 3 5 4 2 2 3 3 4 4 6 10 9 11 15 17 18 19 21 24 25 25 22 16 13 10 9 9 9 11 12 14 16 18 20 22 23 25 26 27 29 30 31 33 33 33 33 34 34 33 33 33 33 33 33 33 32 32 31 29 28 26 25 24 23 23 21 20 19 18 18 16 14 15 16 16 17 18 18 17 15 14 17 20 21 21 20 19 16 14 15
2 3 5 6 3 7 4 2 0 3 3 4 2 3 4 3 7 11 6 6 9 11 11 13 18 18 19 24 25 21 17 14 13 12 11 11 12 14 16 16 18 19 20 22 23 25 26 28 29 30 31 32 33 33 33 32 32 32 32 32 32 32 31 31 30 28 26 24 24 24 23 22 21 20 20 20 19 17 16 18 18 16 16 18 19 19 19 20 22 22 19 17 16 16 14 13 14
4 4 7 3 2 3 4 2 1 1 4 4 1 3 4 2 4 7 7 7 10 9 7 10 13 13 15 21 23 21 19 16 16 14 12 12 12 13 14 14 14 14 15 17 19 21 23 26 28 29 30 31 31 31 31 31 31 31 30 30 30 30 29 28 27 25 25 24 24 24 24 23 22 21 21 20 20 19 17 19 21 21 19 19 20 21 21 21 20 19 17 15 14 13 12 10 10
4 5 5 4 3 3 1 2 3 3 4 5 3 3 4 5 5 5 6 9 11 9 7 6 8 12 17 20 21 21 20 18 19 17 13 12 12 12 12 11 11 11 11 12 14 16 18 21 24 26 28 28 28 28 28 29 29 28 28 27 27 27 26 26 25 24 24 24 23 24 23 23 22 21 21 21 20 18 18 21 23 23 22 20 21 21 18 15 15 14 13 12 11 11 10 8 8
2 1 3 2 3 5 3 3 4 4 4 4 3 4 4 6 6 6 10 11 9 9 7 6 10 17 19 20 19 20 19 19 19 18 15 13 12 12 11 11 11 11 11 11 11 11 13 14 17 19 22 24 25 25 25 25 25 25 25 24 24 24 23 23 22 22 22 22 22 22 22 22 22 21 21 21 20 18 19 22 22 21 20 17 17 16 14 13 11 10 10 10 10 10 9 8 6
2 2 5 2 0 2 2 1 2 4 4 3 2 5 6 5 6 10 14 14 11 9 7 7 12 18 21 20 19 18 18 18 19 19 17 14 13 12 11 11 11 11 11 10 10 9 10 10 11 12 14 17 19 20 21 21 21 21 21 22 22 22 20 20 20 20 20 20 20 20 20 21 21 21 21 20 20 20 21 22 22 21 20 17 15 14 12 10 9 10 10 10 10 9 8 7 6
6 5 7 5 3 3 2 4 2 2 3 4 3 6 7 5 6 10 13 13 10 8 7 7 11 15 17 18 19 18 16 16 17 18 17 14 14 13 12 11 11 11 10 9 8 8 8 8 9 10 11 13 15 16 17 18 19 19 20 20 20 20 19 18 19 19 19 19 20 20 21 21 21 21 22 22 23 24 24 23 21 19 18 16 14 12 10 9 9 10 10 10 9 8 7 6 4
Wind_Direction
259 266 284 296 312 317 335 351 1 358 62 83 313 172 224 201 191 162 148 172 79 5 126 132 133 142 136 122 135 115 112 153 158 144 181 156 145 152 155 155 159 159 157 153 148 137 126 109 109 128 142 143 135 131 132 131 130 125 108 96 90 87 81 79 83 85 86 85 82 81 81 80 77 78 80 83 86 87 90 91 93 95 94 91 92 94 96 99 96 87 83 83 84 87 87 87 86
254 261 282 287 309 316 317 6 48 339 35 27 289 166 253 300 139 188 192 205 149 122 115 116 114 112 101 104 106 90 89 162 165 149 144 143 146 153 156 155 155 158 158 156 153 141 128 109 109 130 147 147 136 131 132 134 136 129 113 99 91 86 82 76 78 85 87 86 81 80 80 80 79 77 78 82 85 88 90 90 91 93 95 94 93 92 92 94 92 87 87 89 88 89 90 90 87
251 254 272 281 310 339 345 24 63 63 44 293 277 248 239 157 183 212 216 177 133 121 110 106 97 85 78 89 83 81 101 176 159 141 140 148 153 154 154 154 153 159 161 159 159 148 132 112 113 135 154 152 137 133 136 138 140 133 118 100 93 87 83 79 77 85 93 95 89 85 83 82 83 81 78 79 83 85 85 86 87 89 93 95 94 92 91 92 93 91 92 91 90 89 90 90 86
254 247 252 275 329 10 53 49 118 118 25 232 254 267 226 178 195 219 188 143 132 121 109 103 77 54 56 96 86 90 112 146 155 147 148 155 155 152 152 153 156 160 162 165 164 153 139 118 113 138 156 156 143 139 143 143 141 136 128 108 100 95 87 84 80 81 91 97 93 89 89 88 87 86 83 82 85 85 84 84 85 86 89 95 95 93 94 92 94 94 93 92 92 91 89 88 85
267 254 236 255 351 42 79 68 110 107 243 197 182 265 237 195 190 193 152 145 147 141 143 120 86 82 87 94 77 99 143 147 156 156 153 153 154 153 151 153 158 161 164 169 167 156 145 129 114 144 161 161 151 147 148 147 145 142 133 118 110 103 90 86 83 80 85 93 92 91 93 92 89 91 90 86 86 86 86 85 85 87 89 95 97 96 95 91 91 93 94 93 92 91 88 85 83
280 270 224 202 103 102 109 95 209 216 240 172 177 255 223 197 174 162 155 158 177 169 152 131 128 124 94 65 52 123 141 149 162 160 152 150 155 154 150 154 160 163 168 171 168 160 150 139 124 150 168 169 162 154 151 148 148 143 132 127 119 107 95 88 87 83 82 87 90 89 90 91 92 97 97 90 87 86 87 87 87 89 92 97 98 96 92 90 92 94 96 96 95 92 87 84 81
290 274 117 120 91 52 109 169 215 233 245 171 183 227 196 191 168 155 154 156 166 166 155 140 136 122 97 74 82 132 140 161 165 157 153 153 158 157 151 155 162 165 171 173 169 162 156 148 143 160 169 175 172 161 155 151 150 147 144 143 132 118 106 94 89 88 86 87 91 90 90 94 98 103 101 93 90 90 89 90 92 93 94 96 98 97 94 94 97 98 100 99 98 95 91 88 84
293 270 86 110 68 23 100 168 233 214 238 208 225 211 181 179 166 157 159 155 171 180 148 144 138 110 120 120 126 153 151 167 163 156 157 159 163 162 155 159 166 168 174 175 171 166 164 157 158 169 169 177 175 168 163 156 156 154 153 153 145 133 116 99 95 95 95 94 95 94 94 99 104 107 105 99 96 95 95 96 97 97 97 98 99 99 98 97 99 101 101 97 97 98 97 94 89
287 249 88 104 123 49 58 300 269 241 254 255 252 201 180 175 167 159 159 157 162 157 148 154 150 126 160 137 143 163 165 168 162 160 161 165 169 164 158 165 171 173 177 177 175 171 169 168 170 177 173 179 178 176 175 167 163 159 155 152 147 142 124 106 106 106 106 103 103 100 100 104 109 112 108 105 103 101 100 99 99 100 101 102 101 100 99 97 98 100 98 96 95 98 100 97 93
336 85 117 93 126 102 333 284 273 265 258 263 234 186 179 176 172 166 162 154 156 152 154 167 150 138 153 137 146 164 169 168 167 168 167 169 170 165 162 168 176 180 180 178 179 177 176 176 172 180 181 181 182 181 180 177 171 163 157 151 150 147 128 115 116 117 118 112 112 111 110 111 112 116 114 111 109 106 104 103 103 104 105 104 103 101 100 100 99 99 97 98 98 99 99 96 94
34 27 105 90 94 154 223 245 266 269 276 300 246 187 182 179 176 181 175 152 159 156 157 170 145 136 138 135 153 166 171 171 176 175 171 173 171 165 166 170 177 184 184 181 182 184 184 183 177 181 185 183 184 182 180 182 178 169 163 158 158 152 132 126 128 127 127 122 122 121 120 121 121 124 122 120 115 112 109 106 106 106 107 106 105 103 102 104 102 100 96 96 99 99 97 98 99
190 8 71 103 140 191 199 219 259 283 313 321 213 192 185 182 179 189 178 159 163 160 164 173 163 146 123 136 164 170 174 172 180 182 176 176 174 167 171 173 176 183 187 186 185 188 191 191 186 184 186 184 181 181 178 179 180 175 173 171 167 158 143 137 138 136 133 129 127 128 130 129 130 133 131 127 122 117 112 107 107 106 107 106 105 105 104 106 106 103 98 96 95 95 93 94 99
189 118 90 130 187 182 162 190 263 311 323 267 202 189 186 187 202 197 172 159 164 157 172 180 168 155 120 167 173 176 178 175 179 188 184 178 176 171 173 176 176 182 187 190 190 191 196 200 194 189 189 184 179 178 175 176 180 180 181 183 176 167 156 147 148 144 138 133 132 136 136 132 134 138 136 133 127 121 114 108 107 104 104 104 105 107 108 108 109 107 100 95 87 81 80 77 80
165 139 118 160 152 141 154 168 273 201 258 249 192 183 186 193 219 201 169 150 178 169 173 181 173 160 135 164 180 183 180 177 180 189 189 180 178 173 173 179 180 183 186 192 194 194 198 205 201 195 193 186 181 179 176 177 180 181 182 183 178 170 161 157 159 153 144 138 139 142 140 138 140 142 142 139 133 125 118 113 110 106 103 103 104 106 108 109 108 108 100 92 79 66 62 60 57
166 130 101 124 44 323 188 196 204 175 237 231 175 183 186 201 228 201 174 159 187 177 162 168 174 170 176 176 194 192 181 178 181 186 188 181 180 177 176 182 184 186 187 191 196 198 199 208 207 201 198 191 184 181 180 180 180 180 179 178 174 169 165 163 166 164 154 146 146 145 143 144 144 145 146 143 138 132 126 122 116 111 106 102 102 103 104 107 105 104 98 87 74 60 50 48 47
184 138 71 98 222 247 215 190 128 154 247 205 167 180 182 212 219 194 184 172 162 161 162 168 178 188 203 185 204 191 179 178 181 183 186 184 183 183 182 186 189 188 188 191 196 200 200 208 210 205 201 195 189 184 184 182 182 183 180 181 176 171 169 166 169 171 167 159 153 149 146 148 149 149 148 148 145 141 137 131 125 117 111 106 101 101 100 101 101 98 93 85 73 60 49 42 41
190 131 67 98 200 207 206 179 163 177 241 207 171 178 175 205 204 191 190 179 163 161 173 182 187 201 213 195 176 178 179 179 181 183 186 187 188 188 188 191 193 193 191 193 195 199 202 207 210 207 201 198 193 187 186 185 186 185 184 185 183 178 173 169 172 173 174 169 163 156 150 152 154 155 154 155 154 151 147 140 134 127 118 112 104 102 98 95 95 91 85 77 68 56 47 39 33
211 124 116 199 193 194 186 176 192 185 217 205 185 181 175 178 186 185 177 170 165 167 185 187 190 201 196 194 174 176 180 179 182 185 186 189 192 192 193 194 197 198 196 194 195 199 202 206 210 207 200 199 196 191 190 187 188 188 185 185 184 180 174 172 173 175 180 178 174 167 160 159 160 163 162 161 162 161 158 151 144 136 127 119 111 107 98 93 89 83 78 66 57 45 36 30 23
213 120 145 222 201 203 205 196 208 219 247 209 188 184 185 188 180 177 175 170 165 165 185 183 191 195 177 181 176 178 182 183 186 189 190 192 195 197 196 196 200 202 201 198 197 200 203 205 209 207 200 199 197 194 192 189 189 188 185 182 179 177 174 172 173 176 181 185 184 178 174 171 169 171 171 169 171 172 169 165 159 152 144 137 129 123 111 102 89 75 66 50 39 27 19 13 8
229 162 199 241 220 241 265 258 253 253 256 212 189 189 192 189 179 179 181 172 182 190 185 179 190 189 176 177 178 181 185 186 190 193 196 198 199 202 201 200 202 204 205 203 202 203 204 205 208 208 202 200 199 197 194 192 190 190 191 186 182 181 180 177 176 176 177 187 191 187 188 185 182 182 182 182 180 182 182 181 178 175 173 167 161 154 146 128 103 62 34 22 18 11 2 354 348
231 173 206 243 199 262 277 278 305 283 249 218 190 182 191 185 178 183 170 152 229 221 199 194 195 188 180 178 178 183 187 188 193 196 200 202 204 205 207 208 208 207 207 207 208 208 207 206 207 207 205 202 201 200 198 197 195 195 196 194 192 191 190 188 186 187 179 185 197 197 198 197 197 195 193 194 194 195 193 195 195 197 201 199 196 189 189 193 211 280 329 336 342 347 344 338 334
261 248 258 272 237 255 284 296 329 303 235 206 183 176 186 179 181 190 176 170 221 217 207 205 203 196 192 187 181 185 189 192 195 198 202 206 208 208 210 212 212 212 211 211 212 212 211 210 208 207 207 205 203 203 202 202 201 200 201 201 201 201 203 202 199 201 194 191 205 212 209 209 212 209 207 206 207 207 205 206 206 209 214 215 214 212 215 220 236 261 280 297 311 320 321 322 322
228 272 273 279 267 249 281 296 314 302 215 192 184 186 181 171 193 200 191 202 215 217 215 211 208 207 207 198 188 188 192 195 199 202 205 208 211 212 213 214 215 215 214 215 216 216 215 212 209 209 209 209 206 204 205 207 207 207 207 207 208 210 214 216 215 216 212 205 211 224 225 222 227 227 221 218 217 217 216 218 217 220 224 228 230 230 235 238 247 264 277 283 292 301 304 308 311
207 261 289 288 278 261 276 292 302 289 223 200 186 187 184 180 198 202 207 216 217 227 221 211 210 207 206 202 197 197 197 200 204 207 209 212 214 216 217 218 219 218 218 219 218 219 217 214 212 210 211 212 210 209 209 211 213 215 215 216 217 218 221 225 228 230 227 220 215 223 229 227 232 236 232 226 224 223 224 227 229 232 233 238 242 246 253 257 262 268 278 280 280 287 292 296 300
172 255 289 289 278 271 275 285 300 277 220 200 186 195 197 194 198 216 224 221 217 231 223 211 210 206 205 206 206 203 200 202 206 208 210 213 215 217 220 221 221 221 221 220 219 220 218 216 214 214 215 214 213 215 216 217 218 220 221 222 223 225 228 228 230 234 236 232 224 224 229 233 235 237 240 237 229 225 228 231 235 239 241 243 247 254 259 264 268 271 277 280 279 280 283 289 293
75 298 294 293 280 281 282 274 291 249 206 190 193 212 196 197 219 257 239 226 218 226 224 214 211 208 207 210 211 208 204 204 205 207 209 212 214 217 219 221 222 223 223 223 222 221 218 217 216 217 218 217 216 218 221 223 222 223 225 226 226 229 231 230 232 234 237 239 234 230 231 236 239 237 240 242 237 231 230 234 237 242 246 246 250 257 260 263 266 269 270 273 276 279 280 282 286
11 330 307 296 279 277 283 266 248 224 210 197 197 198 190 195 201 258 244 228 218 220 222 217 213 213 212 211 214 212 212 210 208 208 209 211 214 217 219 220 222 224 225 225 224 221 218 218 219 219 219 220 220 221 224 225 226 226 228 229 229 230 230 230 233 236 238 241 240 237 236 236 240 241 241 243 243 240 237 240 241 243 249 250 249 253 257 260 263 266 268 272 277 279 280 281 285
353 340 315 298 281 268 263 257 233 216 221 210 193 170 299 155 208 242 238 220 215 217 220 217 213 214 215 213 213 214 216 216 213 210 210 213 215 217 219 221 222 223 225 226 225 222 219 219 220 221 221 222 223 224 225 226 228 229 230 232 233 233 233 233 235 239 242 245 246 245 243 239 240 244 247 247 246 246 244 243 244 245 249 252 248 249 254 259 263 266 267 270 273 276 279 281 284
351 360 320 299 308 279 247 235 222 204 212 199 158 119 293 262 233 239 238 222 215 215 220 217 213 213 214 214 214 215 217 217 214 214 216 219 220 220 221 222 223 224 226 227 228 226 222 220 221 222 223 224 226 226 227 229 231 231 232 235 236 237 238 239 239 242 245 247 250 249 247 243 241 243 248 251 249 249 248 245 247 247 247 250 249 250 255 259 263 265 264 265 269 272 275 279 282
36 88 146 292 323 297 238 203 193 188 192 169 148 208 266 244 238 236 236 230 214 210 218 216 214 214 214 215 216 218 218 218 217 219 221 222 224 224 225 225 225 226 227 227 228 227 225 223 222 222 223 225 227 228 229 230 232 233 235 236 238 239 240 242 242 243 245 245 246 247 246 244 243 243 246 250 251 251 250 249 249 248 248 250 251 252 256 260 263 264 265 267 269 272 274 277 281
104 129 155 214 247 277 267 185 154 159 217 178 149 224 252 249 249 238 232 233 215 209 215 216 217 216 217 218 218 221 221 221 223 223 224 224 225 226 227 227 226 227 227 227 227 226 227 226 225 223 224 225 226 228 229 230 231 233 236 237 237 238 239 240 240 241 242 242 242 243 245 245 243 244 245 248 251 252 252 252 251 250 249 250 251 252 254 257 261 265 268 270 272 274 277 278 280
117 168 206 186 194 262 305 206 169 169 208 174 150 217 259 265 266 244 225 223 214 212 215 217 219 219 219 220 221 224 225 225 226 226 226 226 226 227 227 226 227 228 228 228 227 225 226 227 227 227 225 225 226 227 229 230 232 233 234 236 237 238 240 240 240 240 241 241 240 241 243 244 244 244 245 247 249 252 253 254 253 251 250 250 251 252 254 257 261 264 267 271 274 275 278 280 282
176 175 218 210 185 240 313 248 198 183 138 175 181 217 264 268 264 233 217 217 212 214 219 220 221 223 223 223 224 226 227 227 228 229 228 227 228 229 228 226 226 228 229 229 228 226 226 226 228 229 227 226 227 229 231 232 233 234 235 237 238 239 241 241 241 241 241 241 241 241 242 243 245 245 246 247 248 251 253 254 254 253 252 253 253 254 257 260 262 263 266 270 272 275 281 283 285
210 148 228 228 200 207 245 269 220 184 147 207 204 222 246 253 264 251 208 219 213 215 224 224 224 226 227 227 227 228 230 230 231 231 230 229 230 231 231 230 227 227 229 229 229 228 228 228 229 230 230 228 228 230 232 235 236 238 239 240 241 242 242 243 243 243 243 243 243 244 245 246 246 247 247 249 249 251 252 253 253 252 253 255 257 259 260 263 265 265 263 265 269 276 282 284 286
186 175 193 231 233 219 228 254 206 172 163 211 191 225 253 260 272 264 246 224 218 221 227 230 230 230 229 229 229 231 233 234 235 235 234 232 233 234 233 232 229 228 228 228 229 229 229 230 230 231 231 229 228 230 232 235 238 239 240 241 242 242 241 241 242 243 243 243 244 245 247 248 248 249 250 251 252 252 254 255 255 254 254 255 258 259 259 263 269 269 267 268 274 280 280 282 285
177 180 178 196 214 232 232 246 232 178 163 210 200 214 246 249 260 258 247 235 229 230 233 235 236 235 233 232 232 234 235 238 240 239 237 235 235 235 235 234 232 230 229 229 228 228 229 228 229 230 230 230 229 229 230 232 234 236 237 237 238 238 238 239 240 242 243 243 244 245 247 249 251 253 254 255 255 255 255 257 257 257 256 257 259 260 261 263 266 270 275 275 272 271 270 272 275
171 177 191 200 208 236 234 237 282 201 170 223 215 215 247 248 253 263 255 245 242 237 236 237 237 237 236 234 234 235 238 242 245 242 239 238 238 237 236 236 234 231 230 229 229 229 228 228 229 230 229 230 230 229 229 230 231 231 233 233 235 236 237 240 241 242 244 245 245 246 248 250 252 255 258 259 259 258 257 257 258 257 257 259 262 264 266 267 268 271 279 279 269 263 268 277 282
213 193 207 217 213 235 242 237 310 319 177 250 243 218 254 257 256 268 262 239 245 240 234 236 236 236 237 237 237 238 241 246 247 246 244 241 240 238 237 236 235 233 230 229 230 230 230 229 230 231 230 230 230 231 231 232 233 233 235 237 238 240 241 243 246 247 249 251 252 252 253 255 256 257 258 259 260 260 260 259 259 258 257 258 262 266 267 267 273 276 274 273 270 270 281 296 300
248 214 196 224 219 256 284 286 326 9 176 271 321 205 255 264 259 264 251 233 246 247 241 242 239 237 239 239 240 241 243 247 248 247 247 244 243 240 238 237 235 235 233 232 232 231 231 231 231 232 231 232 232 233 233 234 236 238 240 243 245 247 248 250 252 253 254 254 254 254 254 255 257 257 257 259 260 260 261 261 262 262 260 257 256 260 261 263 272 276 271 270 269 274 280 288 292
240 212 187 221 198 182 277 293 325 23 77 216 146 238 267 272 272 269 250 239 247 252 251 251 249 245 246 244 244 245 245 248 249 249 249 247 244 240 238 236 234 235 235 233 232 232 232 232 232 233 232 233 234 234 236 237 238 241 244 247 249 250 252 253 254 253 251 248 248 248 248 250 252 254 256 258 260 261 261 262 264 265 266 262 255 255 254 257 265 270 269 268 264 268 270 275 289
236 219 196 203 185 196 232 274 311 352 348 105 93 330 295 267 269 269 256 245 248 254 252 252 251 247 249 250 248 248 247 249 252 253 252 250 247 242 239 237 234 234 235 234 233 232 233 234 234 234 234 235 235 236 238 239 240 241 241 243 245 246 247 247 247 245 243 242 243 243 245 248 250 253 256 257 259 261 261 261 262 265 269 267 265 263 254 251 256 259 262 261 260 270 271 270 281
239 229 198 193 203 214 217 161 98 28 288 290 85 287 282 286 274 253 260 288 263 258 250 247 250 247 246 247 246 247 247 249 252 254 253 252 250 246 242 239 236 235 235 234 234 234 235 236 236 236 236 236 236 237 238 239 240 240 240 240 240 241 242 242 242 242 243 244 245 246 247 249 251 254 257 259 262 263 265 267 267 270 272 267 266 272 266 256 255 255 258 259 259 267 267 266 272
237 225 190 192 206 200 175 158 152 192 248 284 90 205 257 306 282 247 271 311 278 270 261 251 251 248 245 244 246 247 247 248 249 249 250 249 248 246 243 241 238 239 239 237 237 237 236 237 237 237 238 238 237 238 238 238 240 241 242 243 243 245 245 245 247 249 249 250 251 252 253 253 255 257 260 263 265 266 269 271 270 270 270 269 267 266 267 266 262 260 260 259 256 257 260 268 276
236 220 172 176 186 186 185 175 191 217 231 311 36 165 236 276 256 258 319 308 283 279 272 259 252 248 247 247 249 250 250 250 249 248 247 246 245 245 244 244 244 246 246 243 242 240 239 238 238 239 239 240 239 239 238 239 240 241 243 244 246 247 248 250 252 252 253 253 254 255 256 257 258 259 261 263 266 267 268 268 269 268 264 269 269 259 257 258 258 259 259 256 253 255 265 273 277
239 198 148 164 170 174 182 174 196 234 149 258 261 154 209 261 267 298 346 273 275 275 263 256 251 247 247 250 252 254 255 253 251 248 247 246 245 244 245 247 248 249 249 248 247 246 245 242 241 241 241 241 240 240 240 240 241 243 244 245 246 248 250 251 252 253 254 254 255 256 258 260 260 259 260 261 263 263 263 262 263 265 259 258 261 264 265 257 256 259 249 246 252 257 269 273 272
216 148 102 88 94 101 138 159 161 115 210 229 218 180 213 265 272 285 311 255 257 265 262 253 254 253 251 253 254 256 258 257 253 249 246 245 245 244 245 247 247 247 247 247 248 247 246 244 243 243 243 243 242 242 241 242 242 243 245 246 247 249 250 251 252 253 254 255 256 257 258 260 260 261 260 259 260 258 258 257 256 264 267 258 252 262 265 256 265 267 244 241 256 259 264 270 274
129 111 79 58 48 63 75 101 109 138 235 239 220 197 211 268 266 242 225 225 222 239 261 261 260 264 266 263 260 258 261 261 255 249 245 244 243 243 244 245 246 246 246 245 244 245 245 244 244 244 245 245 245 244 243 243 243 244 245 247 249 250 251 252 253 254 255 257 259 261 263 263 262 263 261 259 257 254 256 258 255 255 262 269 263 258 253 248 261 263 239 240 257 256 263 273 276
127 101 107 94 10 38 46 4 79 194 237 262 255 195 172 239 253 242 233 238 228 228 248 257 264 281 292 286 270 261 258 259 255 248 244 241 241 241 242 243 245 245 245 243 242 243 244 244 244 244 244 245 246 246 245 245 245 245 246 248 250 251 252 254 255 256 258 260 263 266 267 266 265 263 261 257 253 253 254 258 260 249 244 263 272 262 253 248 252 254 236 242 250 252 264 272 271
150 120 135 145 317 131 197 246 200 224 241 272 263 176 201 238 250 261 258 257 250 235 232 243 257 275 295 311 296 277 261 253 250 246 243 240 239 240 241 242 244 244 244 243 241 241 242 243 243 244 243 244 245 246 246 247 247 248 248 249 250 252 253 254 256 257 259 262 264 265 265 265 266 264 262 259 255 257 256 253 256 255 247 256 259 250 248 255 254 255 253 251 252 251 252 261 266
170 151 156 167 154 168 207 231 256 253 255 270 254 201 251 272 261 245 246 250 251 248 246 252 258 264 276 294 296 285 271 249 242 241 240 239 238 239 241 242 242 243 243 241 240 240 240 240 241 242 242 244 245 246 247 247 248 249 250 251 252 253 254 255 256 258 260 261 261 261 262 262 262 262 262 261 257 260 262 254 249 255 256 249 242 237 242 252 250 246 249 251 250 245 243 253 263
188 161 145 164 170 178 204 211 201 226 252 276 261 203 205 206 235 238 242 258 263 260 257 256 258 259 264 270 272 270 266 249 229 228 227 229 233 235 238 240 240 241 241 240 239 239 239 239 239 240 240 241 243 244 246 247 248 250 250 251 252 253 254 256 257 259 259 260 259 259 259 259 259 259 258 256 255 257 260 255 243 244 242 231 232 240 241 242 241 239 243 247 246 247 248 253 261
210 141 139 193 191 152 151 191 184 178 200 251 225 225 212 204 274 274 258 263 267 263 259 254 253 255 256 257 256 254 253 248 234 226 223 226 232 236 240 241 241 242 241 241 241 240 240 240 240 240 240 241 242 243 245 246 248 249 250 250 251 251 252 254 254 256 256 255 255 255 255 255 255 256 254 252 252 251 245 244 243 236 231 231 233 232 227 231 237 241 246 248 249 252 251 250 262
173 135 191 223 165 115 122 211 128 103 202 246 206 244 290 303 286 288 288 276 268 259 251 244 244 249 250 245 242 242 244 243 236 224 219 227 234 240 244 245 245 245 244 244 243 242 242 241 241 241 241 241 242 242 243 245 246 247 247 247 247 248 249 250 250 251 251 251 250 250 250 250 249 248 248 248 248 245 236 236 237 229 221 220 220 223 232 240 244 245 247 248 250 254 252 253 264
143 182 202 195 97 103 120 174 353 90 222 268 241 225 273 266 254 298 322 288 268 259 240 240 246 244 241 236 231 234 239 236 230 219 216 228 235 239 242 243 245 246 245 243 242 241 240 240 240 240 241 241 242 242 242 242 243 243 244 244 245 245 246 246 247 246 245 244 243 244 245 245 244 241 242 245 247 244 233 224 224 225 222 218 225 236 243 245 244 242 241 241 244 250 252 250 253
160 192 180 142 175 211 143 155 192 190 225 274 305 266 247 205 216 292 295 253 251 257 243 236 244 233 230 230 225 227 230 227 222 217 221 233 236 238 237 235 238 238 238 237 236 237 236 236 237 237 238 238 237 238 238 240 241 242 243 243 242 243 243 242 241 239 239 240 239 240 242 242 241 241 243 246 249 244 232 225 229 236 236 233 236 240 240 237 232 230 232 233 235 239 240 236 237
56 99 174 155 174 188 177 164 171 181 214 245 296 302 253 214 204 222 247 246 240 247 240 222 227 226 227 230 225 223 226 226 222 219 227 235 235 237 233 228 230 228 228 227 223 225 224 226 229 231 233 233 232 233 234 237 240 240 240 238 236 236 237 237 236 234 235 236 236 238 239 239 240 243 246 246 246 242 234 234 240 247 249 246 238 230 228 226 220 220 223 222 223 224 227 228 224
144 154 187 198 72 150 173 179 131 145 185 196 245 272 255 234 201 202 228 243 235 224 222 225 231 228 230 233 229 227 231 234 229 224 229 235 234 236 230 224 225 222 223 222 217 216 214 213 216 217 221 224 224 225 227 229 231 231 231 230 231 230 228 229 229 229 230 231 232 233 232 233 234 238 242 241 240 237 236 241 247 250 249 242 227 218 219 218 213 215 214 214 216 214 214 213 206
175 181 187 178 145 110 160 232 217 116 175 177 186 255 260 235 201 202 217 233 236 220 208 228 244 239 240 241 235 233 238 241 235 227 228 231 229 228 224 219 216 214 215 213 209 206 200 196 195 196 201 205 210 213 215 218 220 222 224 225 226 225 220 219 221 222 224 224 226 227 227 229 231 232 234 235 238 239 241 245 244 237 228 219 212 208 208 206 205 208 207 204 203 198 200 204 203